Change the Weather History Date:

Tuesday, November 6, 2012

  Actual Average Record
Temperature  
Mean Temperature 34 °F -  
Max Temperature 42 °F 55 °F 70 °F (1938)
Min Temperature 26 °F 41 °F 18 °F (1965)
Degree Days  
Heating Degree Days 31    
Moisture  
Dew Point 24 °F    
Average Humidity 66    
Maximum Humidity 85    
Minimum Humidity 49    
Precipitation  
Precipitation 0.00 in - - ()
Sea Level Pressure  
Sea Level Pressure 30.17 in    
Wind  
Wind Speed 6 mph (North)    
Max Wind Speed 9 mph    
Max Gust Speed -    
Visibility 10 miles    
Events      
Averages and records for this station are not official NWS values.
T = Trace of Precipitation, MM = Missing Value Source: NWS Daily Summary

Daily Weather History Graph

Daily Weather History Graph

Search for Another Location

Airport or City:

Trip Planner

Search our weather history database for the weather conditions in past years. The results will help you decide how hot, cold, wet, or windy it might be!

Date:

Astronomy

Nov. 06, 2012 Rise Set
Actual Time 6:19 AM EST 4:29 PM EST
Civil Twilight 5:50 AM EST 4:58 PM EST
Nautical Twilight 5:17 AM EST 5:31 PM EST
Astronomical Twilight 4:44 AM EST 6:04 PM EST
Moon 11:05 PM EST (11/6) 12:09 PM EST (11/6)
Length of Visible Light 11h 07m
Length of Day
10h 09m
Waning Gibbous, 53% of the Moon is Illuminated
Nov 6
Waning Gibbous
Nov 6
Last Quarter
Nov 13
New
Nov 20
First Quarter
Nov 28
Full

Hourly Weather History & Observations

Time (EST) Temp. Windchill Dew Point Humidity Pressure Visibility Wind Dir Wind Speed Gust Speed Precip Events Conditions
12:56 AM 37.0 °F 30.4 °F 25.0 °F 62% 30.10 in 10.0 mi NNW 9.2 mph - N/A   Partly Cloudy
1:56 AM 34.0 °F 28.0 °F 25.0 °F 70% 30.12 in 10.0 mi WNW 6.9 mph - N/A   Partly Cloudy
2:56 AM 34.0 °F 28.8 °F 24.1 °F 67% 30.13 in 10.0 mi NW 5.8 mph - N/A   Clear
3:56 AM 32.0 °F 25.6 °F 21.9 °F 66% 30.13 in 10.0 mi NW 6.9 mph - N/A   Clear
4:56 AM 32.0 °F 24.8 °F 23.0 °F 69% 30.14 in 10.0 mi WNW 8.1 mph - N/A   Partly Cloudy
5:56 AM 33.1 °F 27.7 °F 25.0 °F 72% 30.15 in 10.0 mi WNW 5.8 mph - N/A   Mostly Cloudy
6:56 AM 34.0 °F - 26.1 °F 73% 30.17 in 10.0 mi Calm Calm - N/A   Scattered Clouds
7:56 AM 37.9 °F 32.1 °F 24.1 °F 57% 30.19 in 10.0 mi NW 8.1 mph - N/A   Mostly Cloudy
8:56 AM 39.9 °F 33.9 °F 24.1 °F 53% 30.20 in 10.0 mi North 9.2 mph - N/A   Scattered Clouds
10:56 AM 41.0 °F 35.8 °F 24.1 °F 51% 30.21 in 10.0 mi ENE 8.1 mph - N/A   Clear
11:16 AM 42.8 °F 38.0 °F 24.8 °F 49% 30.21 in 10.0 mi ENE 8.1 mph - N/A   Clear
11:56 AM 39.9 °F 34.5 °F 24.1 °F 53% 30.21 in 10.0 mi NNE 8.1 mph - N/A   Clear
12:56 PM 41.0 °F 35.8 °F 24.1 °F 51% 30.19 in 10.0 mi NNE 8.1 mph - N/A   Clear
1:56 PM 41.0 °F 36.4 °F 24.1 °F 51% 30.18 in 10.0 mi NNW 6.9 mph - N/A   Clear
2:56 PM 41.0 °F 36.4 °F 25.0 °F 53% 30.18 in 10.0 mi NNE 6.9 mph - N/A   Clear
3:56 PM 39.0 °F 35.7 °F 24.1 °F 55% 30.18 in 10.0 mi North 4.6 mph - N/A   Clear
5:56 PM 30.0 °F - 21.9 °F 72% 30.19 in 10.0 mi Calm Calm - N/A   Clear
6:56 PM 27.0 °F - 19.9 °F 75% 30.20 in 10.0 mi Calm Calm - N/A   Clear
7:56 PM 26.1 °F - 21.0 °F 81% 30.20 in 10.0 mi Calm Calm - N/A   Clear
8:56 PM 28.0 °F - 24.1 °F 85% 30.19 in 10.0 mi Calm Calm - N/A   Clear
9:56 PM 30.0 °F 24.1 °F 26.1 °F 85% 30.15 in 10.0 mi NE 5.8 mph - N/A   Clear
10:56 PM 33.1 °F - 28.9 °F 85% 30.15 in 10.0 mi Calm Calm - N/A   Scattered Clouds
11:56 PM 36.0 °F 31.1 °F 30.9 °F 82% 30.12 in 10.0 mi NE 5.8 mph - N/A   Mostly Cloudy